Wind_Speed
14 11 9 8 8 9 11 12 8 13 14 13 15 18 19 20 17 18 19 17 17 16 14 13 13 8 5 3 2 3 6 6 4 8 16 14 16 17 16 15 14 13 12
16 11 12 11 10 10 11 11 8 11 12 13 14 17 18 20 21 20 18 18 17 17 15 13 13 11 11 11 10 8 7 3 4 13 11 12 15 14 15 15 15 15 15
14 13 14 11 12 10 7 10 6 8 10 11 15 18 19 20 19 19 17 18 19 17 16 16 15 14 15 12 11 9 6 6 6 13 9 12 15 16 18 16 15 14 14
15 15 13 15 13 13 10 8 7 7 8 10 12 14 16 17 19 19 18 17 18 20 18 18 16 14 13 12 13 12 10 13 14 16 16 15 15 11 13 18 16 12 11
19 18 16 17 15 16 15 11 8 8 6 9 11 11 13 14 15 16 15 16 17 18 20 21 19 17 14 13 13 12 12 15 17 17 14 12 10 7 6 8 14 14 14
14 14 16 20 18 16 15 10 9 8 6 7 7 10 14 15 12 12 13 13 12 13 15 17 20 21 19 16 15 13 11 11 14 15 12 12 9 7 7 11 15 7 3
16 15 15 14 13 13 16 13 12 11 7 10 8 10 14 13 11 10 12 13 12 12 13 11 14 12 12 11 15 16 15 14 11 10 14 9 7 5 7 8 5 5 7
15 12 9 7 9 11 19 18 14 14 10 8 7 9 11 11 10 12 12 12 12 12 13 12 13 13 13 15 16 18 19 18 14 13 14 15 13 9 5 4 5 10 10
15 11 7 2 3 5 23 21 15 15 12 10 8 8 8 8 7 10 9 7 8 13 11 9 9 11 7 9 12 14 16 17 15 15 16 14 11 9 5 5 1 7 3
10 8 7 7 6 5 20 20 15 15 15 14 13 9 6 5 5 4 9 7 11 11 8 8 7 7 10 5 4 8 7 6 7 9 11 11 10 11 7 8 8 8 11
8 8 9 8 9 11 15 15 15 18 17 14 12 8 6 4 6 8 7 6 13 10 8 7 6 5 4 4 5 4 4 2 1 2 1 8 9 15 15 10 11 11 11
10 11 11 11 11 11 14 15 14 19 18 14 11 7 5 6 6 6 7 12 12 7 6 6 6 6 6 5 6 6 5 8 8 2 15 14 9 9 9 12 13 13 14
13 13 12 12 12 13 14 14 17 17 16 13 10 7 7 7 7 7 6 5 5 4 7 9 9 8 7 7 8 10 9 14 11 10 10 8 6 6 2 3 3 5 7
14 13 13 13 13 14 14 12 13 11 10 9 7 7 6 6 7 7 7 6 7 7 7 5 4 5 7 6 4 8 7 7 8 9 7 4 3 4 5 3 3 6 3
16 15 14 13 13 15 15 13 11 9 7 7 7 7 6 5 6 6 6 4 4 4 3 1 1 4 5 5 3 3 2 6 8 8 8 9 7 5 2 3 5 7 11
19 16 14 14 13 15 17 17 13 11 8 7 6 5 4 4 5 3 2 2 0 1 1 6 10 14 6 8 4 0 1 4 3 3 5 5 8 5 5 3 4 6 4
16 17 16 15 14 15 15 16 18 12 9 7 6 5 4 5 4 2 1 1 2 3 5 9 11 8 10 9 10 7 5 2 3 1 1 4 4 5 8 8 5 6 7
14 16 17 15 14 14 14 15 17 16 14 10 8 7 6 5 3 2 1 1 1 4 10 10 5 7 5 4 4 5 6 5 4 2 1 2 4 6 8 12 10 6 4
10 11 10 13 13 12 17 15 14 13 12 12 10 6 5 4 2 2 2 3 4 8 15 7 9 3 2 3 4 5 7 8 7 5 5 7 7 11 8 11 12 7 7
15 11 13 14 12 9 14 12 17 16 14 14 11 8 8 7 5 4 6 6 2 6 7 3 0 4 6 5 7 9 8 6 8 10 10 9 10 9 7 9 12 10 9
12 12 6 3 12 13 10 6 7 10 15 16 14 12 6 7 8 9 11 11 9 7 5 2 4 5 3 9 12 11 8 8 9 10 10 17 13 13 12 10 13 13 13
8 7 6 10 9 7 4 5 6 9 13 16 17 15 8 7 9 8 8 10 13 11 8 6 5 3 6 9 7 9 13 11 10 11 12 15 16 14 11 11 13 13 14
8 8 12 9 11 6 4 9 4 10 8 4 16 16 16 11 6 5 7 8 9 8 8 8 8 9 10 8 7 9 12 14 13 11 13 12 9 8 8 10 12 15 17
12 16 15 10 6 5 8 11 10 9 9 10 5 9 7 8 10 10 9 8 11 7 10 9 9 11 10 11 13 14 13 13 17 17 16 17 16 15 15 15 18 18 17
14 13 11 10 15 19 19 18 15 11 13 15 9 3 9 13 17 14 9 10 9 3 8 6 7 3 2 5 4 7 12 17 16 19 17 20 20 20 20 21 20 19 20
15 20 21 21 21 19 18 19 18 16 11 12 19 31 25 25 23 23 24 24 22 18 14 12 12 12 11 11 12 12 14 17 19 22 23 22 26 23 22 21 20 19 21
Wind_Direction
148 152 143 148 110 91 79 68 54 55 45 46 50 59 58 54 60 70 70 69 69 66 63 61 59 47 67 97 147 192 186 207 162 111 121 113 113 119 118 116 113 102 89
147 144 136 147 122 101 84 79 63 59 56 54 60 67 63 60 55 58 65 68 67 65 61 64 53 45 57 47 46 60 78 114 165 133 125 115 117 124 120 107 93 87 82
155 157 164 160 135 113 98 79 72 62 72 63 63 66 69 68 62 61 62 69 70 68 67 68 65 59 56 54 61 64 71 80 94 140 124 130 121 123 113 110 103 94 86
163 171 171 162 149 142 131 121 95 75 75 69 73 70 74 72 70 68 65 70 71 67 65 66 67 74 74 72 75 76 86 91 100 110 116 126 130 129 121 118 108 107 98
170 180 172 170 155 147 146 137 127 96 86 86 98 80 85 78 77 76 75 72 70 70 68 71 70 71 75 77 80 81 89 99 103 106 106 112 116 136 137 143 125 116 98
157 165 169 167 154 158 156 145 134 121 113 108 93 94 98 88 84 82 84 81 82 79 88 78 75 73 72 77 82 85 87 100 107 108 108 104 98 105 124 148 140 149 122
107 111 130 165 169 169 169 163 152 135 132 107 95 105 106 102 94 96 98 100 97 96 102 89 80 78 58 74 81 84 88 95 101 106 108 100 107 116 136 154 163 151 143
104 105 118 108 135 169 174 165 152 151 144 132 112 109 117 113 102 118 119 110 105 97 93 88 83 83 74 78 85 84 82 80 85 94 97 95 92 86 94 117 141 129 133
98 78 61 45 147 167 175 169 158 150 148 140 136 118 129 120 98 123 132 118 116 104 103 92 94 81 99 77 82 87 83 79 84 87 90 93 87 72 67 137 157 178 154
79 72 65 68 90 141 174 167 158 152 149 150 132 135 135 124 110 87 155 131 112 112 94 93 101 81 72 167 102 98 99 84 81 97 107 108 78 48 64 67 62 149 155
89 87 85 88 95 125 159 154 151 153 154 146 143 137 127 120 108 82 119 164 146 127 95 103 94 91 86 86 100 105 92 84 139 322 171 117 76 54 56 57 65 80 133
95 94 95 94 96 114 139 149 149 150 146 145 138 121 105 98 104 95 85 110 141 128 90 98 94 87 78 70 95 86 23 343 333 62 121 119 85 58 57 64 77 80 71
102 97 98 101 101 106 110 125 140 148 141 138 134 116 105 94 88 92 90 114 110 97 98 96 96 84 76 91 63 37 37 46 86 114 106 92 71 61 45 13 60 88 81
111 108 105 104 105 107 110 114 121 121 127 138 138 128 112 103 97 96 95 94 94 106 111 113 120 112 114 110 75 40 45 49 63 70 69 63 137 112 87 58 266 217 203
120 115 109 109 110 106 103 102 107 110 119 134 132 132 131 127 122 112 100 89 84 120 122 98 318 297 288 275 242 131 102 51 65 54 43 41 44 48 75 359 345 13 214
127 125 126 121 118 112 111 107 101 100 107 120 131 142 137 140 150 140 133 130 188 193 321 331 329 314 313 92 71 274 178 136 112 82 44 16 23 27 354 355 338 334 342
141 144 147 144 140 135 130 124 119 111 107 106 114 122 120 138 147 141 122 161 184 260 285 320 343 105 74 60 47 60 114 72 346 358 6 19 348 353 349 326 320 317 328
153 163 163 161 154 155 151 145 133 128 128 120 111 110 115 122 129 139 178 245 303 316 306 307 121 106 83 51 25 39 43 26 3 288 349 328 319 322 317 327 317 286 277
197 189 159 152 181 193 188 171 159 158 141 127 134 141 149 143 160 194 215 218 273 302 319 283 202 218 240 221 241 271 301 315 316 311 301 284 272 307 304 311 332 269 272
130 132 140 146 148 138 128 136 155 177 172 165 165 173 158 164 176 200 212 229 271 354 328 66 293 225 223 225 262 278 290 282 294 301 292 287 267 290 272 297 317 313 287
149 164 185 223 130 119 122 124 174 187 180 186 193 191 190 196 204 233 246 240 227 238 162 298 317 337 298 278 275 260 260 264 276 291 296 265 271 296 261 265 280 300 309
176 196 171 120 138 91 100 189 232 218 197 188 195 200 199 216 241 256 295 260 238 222 233 252 281 263 283 312 324 269 259 253 264 298 302 307 265 261 275 274 272 278 290
215 204 137 123 133 72 6 341 33 49 27 143 203 198 199 216 225 242 260 266 268 238 233 248 248 263 287 308 300 301 280 262 267 277 287 299 303 290 294 303 305 290 280
108 118 100 97 84 59 71 58 33 24 43 36 163 183 196 239 243 253 258 265 247 311 286 301 280 292 285 277 271 282 282 284 279 276 269 271 278 279 283 291 297 293 300
93 99 96 89 76 72 61 54 47 67 51 37 43 19 2 16 42 43 8 67 61 55 54 59 84 156 308 23 351 306 308 298 297 289 273 265 268 273 278 287 284 287 291
105 103 97 88 78 64 49 36 27 17 4 16 76 90 75 75 72 72 70 68 69 69 67 62 48 35 22 6 355 326 299 289 286 304 280 273 270 269 278 278 285 278 285
Height
808 812 815 819 819 821 821 821 824 821 819 818 816 813 812 809 807 804 804 804 804 804 804 804 804 804 804 805 806 808 809 810 812 818 821 824 825 826 827 826 825 826 825
809 812 813 818 819 821 822 823 825 823 822 820 819 815 814 812 811 808 807 807 806 806 807 806 806 806 806 806 807 807 807 807 808 814 820 823 825 825 825 825 826 826 825
807 811 813 817 818 819 822 823 826 824 823 822 820 817 816 815 814 813 812 811 809 809 809 809 810 809 808 809 809 809 809 809 810 812 817 822 825 826 826 828 828 827 828
808 810 811 814 816 817 820 824 825 825 824 824 822 820 819 818 817 817 817 816 814 814 813 811 811 811 811 811 811 811 811 811 813 815 819 822 824 827 828 828 831 832 832
805 807 810 813 815 816 818 821 823 824 825 825 824 823 822 823 821 820 820 820 820 819 818 816 816 815 814 813 813 813 814 814 816 818 821 824 826 827 828 829 832 833 834
804 805 808 813 814 817 818 821 823 825 825 826 826 825 825 825 826 825 824 824 824 823 822 821 821 820 819 817 816 816 816 816 817 820 822 824 825 826 828 829 831 833 834
803 807 810 813 814 815 817 820 823 824 826 827 827 826 826 828 828 828 827 826 826 826 825 825 824 824 823 822 821 819 819 819 821 821 822 824 826 827 828 830 831 831 832
806 809 811 811 812 814 816 819 821 823 826 828 828 828 828 829 830 830 829 829 828 828 828 828 828 827 826 826 825 824 824 823 823 823 824 825 827 828 829 829 830 831 832
808 810 811 811 811 812 814 817 819 822 825 828 829 830 830 831 832 832 831 830 830 830 830 830 831 830 830 830 829 828 828 827 827 827 828 829 829 828 827 829 830 829 832
809 810 810 811 811 811 812 814 818 821 825 827 828 830 832 832 832 832 832 832 832 832 832 832 832 832 832 832 832 831 831 831 831 831 831 831 830 829 828 828 827 825 828
809 810 811 812 812 812 813 816 818 821 825 827 828 831 831 832 832 832 832 832 831 832 832 832 833 833 833 833 834 834 833 833 833 833 833 833 832 830 830 829 828 827 827
809 811 812 812 813 814 814 816 819 822 824 827 829 831 831 832 832 832 833 833 833 833 834 834 834 833 833 834 834 834 834 833 831 831 832 833 832 832 832 831 831 830 830
811 813 814 815 817 817 817 818 820 823 824 827 830 831 832 833 833 832 834 834 834 834 834 835 836 836 836 836 837 836 835 834 832 833 833 833 833 833 833 833 833 833 832
813 815 817 818 820 819 819 821 823 825 826 829 831 832 832 833 834 834 835 836 835 835 836 836 836 837 837 837 837 837 836 836 835 835 835 834 834 833 833 833 833 833 833
814 817 819 821 823 822 822 824 826 827 828 830 832 832 833 834 835 836 836 836 836 836 837 837 837 838 838 838 837 837 837 837 836 836 836 835 834 833 833 833 833 832 831
814 817 821 823 825 824 824 826 828 830 831 832 833 834 834 834 836 836 836 836 837 837 838 838 838 837 838 837 838 837 837 836 836 836 835 835 835 834 834 834 833 832 832
815 818 821 823 824 824 825 826 828 832 832 834 834 834 834 835 836 836 836 836 837 837 837 838 838 838 837 838 838 838 838 838 837 836 835 835 834 834 834 833 833 832 831
817 819 821 822 823 824 825 828 829 830 831 833 834 834 834 835 836 836 836 836 837 837 837 838 838 837 837 838 838 838 838 838 836 836 835 835 835 834 833 832 832 831 830
819 820 821 821 822 823 825 828 831 831 831 832 834 834 834 834 835 835 836 836 836 836 835 834 836 835 836 836 836 836 836 836 835 835 834 834 833 833 832 832 831 829 828
819 819 821 822 823 824 825 827 829 829 830 831 831 831 832 833 834 834 834 834 834 834 834 834 834 834 835 834 834 834 834 834 834 833 833 831 832 831 830 829 829 828 826
818 820 821 823 823 824 825 827 827 827 828 827 827 829 829 830 832 833 833 832 832 832 833 833 833 833 833 833 832 832 832 832 832 831 830 830 829 828 827 827 826 826 824
818 819 821 821 823 825 826 826 826 825 824 824 825 826 828 829 830 830 830 829 829 830 830 830 830 831 831 831 830 830 830 830 829 828 827 826 825 825 824 824 823 822 821
818 819 819 821 822 825 825 825 826 824 823 822 824 825 826 828 828 828 827 827 828 827 827 827 827 827 828 829 828 828 827 826 826 825 824 823 823 822 822 820 819 818 816
816 816 819 822 822 823 825 826 826 825 824 824 824 824 825 826 826 825 824 824 825 825 826 825 826 826 826 826 825 825 824 823 822 821 820 819 818 818 817 816 815 814 812
818 819 821 822 822 824 825 826 826 825 825 824 823 824 824 823 823 822 822 823 823 824 826 823 824 824 824 823 822 822 821 820 818 817 815 814 813 812 811 810 809 808 808
819 819 821 822 824 826 826 827 827 828 826 825 824 825 826 826 827 827 827 826 825 825 824 824 824 824 822 820 819 817 816 815 813 813 810 810 809 806 805 804 804 802 802